Downstream station:
SHEF ID: ENWK1 CROOKED C NR ENGLEWOOD, KS
STATION TYPE:
Regulating: Stage = 6.50, Flow = 243
PRECIP STAGE RIV-FLOW BAT-LOAD
in ft cfs volt
Ccp-Rev Ccp-Rev Ccp-Rev Ccp-Rev
(US/Central)
01/22 00:00 0.00 2.43 3 12.89
01/22 01:00 0.00 2.42 3 12.89
01/22 02:00 0.00 2.43 3 12.83
01/22 03:00 0.00 2.43 3 12.83
01/22 04:00 0.00 2.43 3 12.83
01/22 05:00 0.00 2.42 3 12.83
01/22 06:00 0.00 2.41 3 12.77
01/22 07:00 0.00 2.40 3 12.71
01/22 08:00 0.00 2.50 4 12.65
01/22 09:00 0.00 2.57 5 13.71
01/22 10:00 0.00 2.38 3 14.65
01/22 11:00 0.00 2.40 3 14.59
01/22 12:00 0.00 2.41 3 14.41
01/22 13:00 0.00 2.40 3 14.30
01/22 14:00 0.00 2.41 3 14.12
01/22 15:00 0.00 2.44 4 14.12
01/22 16:00 0.00 2.44 4 14.12
01/22 17:00 0.00 2.43 3 14.00
01/22 18:00 0.00 2.42 3 13.94
01/22 19:00 0.00 2.42 3 13.30
01/22 20:00 0.00 2.41 3 13.00
01/22 21:00 0.00 2.41 3 12.95
01/22 22:00 0.00 2.40 3 12.89
01/22 23:00 ---- ---- ---- ----